This demonstration page uses our WeatherBlox Daily Observations layout. Learn more.

Left ArrowRight Arrow

Hourly Observations for January 19, 2022

Temp ( °F °C ) Dew Point ( °F °C ) Humidity (%) Winds ( mph kmh ) Pressure ( in mb ) Visibility ( mi km ) Precip ( " mm )
12:15 am 00:15 Clear 25 -4 23 -5 93 93 Calm 30.21 1023 10 16 0.00 0.00
12:35 am 00:35 Clear 27 -3 25 -4 93 93 Calm 30.22 1023 10 16 0.00 0.00
12:55 am 00:55 Clear 25 -4 23 -5 93 93 SSW 7 11 30.21 1023 10 16 0.00 0.00
1:15 am 01:15 Clear 25 -4 23 -5 93 93 SW 5 7 30.20 1023 10 16 0.00 0.00
1:35 am 01:35 Clear 27 -3 23 -5 86 86 Calm 30.19 1022 10 16 0.00 0.00
1:55 am 01:55 Clear 28 -2 23 -5 80 80 Calm 30.18 1022 10 16 0.00 0.00
2:15 am 02:15 Clear 28 -2 23 -5 80 80 Calm 30.17 1022 10 16 0.00 0.00
2:35 am 02:35 Clear 23 -5 23 -5 100 100 SSW 3 6 30.18 1022 10 16 0.00 0.00
2:55 am 02:55 Clear 27 -3 23 -5 86 86 SSW 5 7 30.17 1022 10 16 0.00 0.00
3:15 am 03:15 Mostly Cloudy 28 -2 23 -5 80 80 S 5 7 30.17 1022 10 16 0.00 0.00
3:35 am 03:35 Cloudy 28 -2 23 -5 80 80 S 5 7 30.17 1022 10 16 0.00 0.00
3:55 am 03:55 Cloudy 28 -2 23 -5 80 80 SSW 5 7 30.17 1022 10 16 0.00 0.00
4:15 am 04:15 Mostly Cloudy 28 -2 25 -4 86 86 SSW 7 11 30.16 1021 10 16 0.00 0.00
4:35 am 04:35 Mostly Cloudy 30 -1 25 -4 80 80 SSW 6 9 30.14 1021 10 16 0.00 0.00
4:55 am 04:55 Partly Cloudy 30 -1 25 -4 80 80 SSW 8 13 30.14 1021 10 16 0.00 0.00
5:15 am 05:15 Clear 30 -1 25 -4 80 80 SSW 6 9 30.14 1021 10 16 0.00 0.00
5:35 am 05:35 Clear 30 -1 27 -3 86 86 SSW 8 13 30.14 1021 10 16 0.00 0.00
5:55 am 05:55 Clear 30 -1 25 -4 80 80 S 9 15 30.13 1020 10 16 0.00 0.00
6:15 am 06:15 Clear 30 -1 27 -3 86 86 S 8 13 30.14 1021 10 16 0.00 0.00
6:35 am 06:35 Clear 32 0 27 -3 80 80 S 8 13 30.14 1021 10 16 0.00 0.00
6:55 am 06:55 Clear 32 0 27 -3 80 80 S 10 17 30.14 1021 10 16 0.00 0.00
7:15 am 07:15 Clear 32 0 27 -3 80 80 S 8 13 30.14 1021 10 16 0.00 0.00
7:35 am 07:35 Sunny 32 0 27 -3 80 80 S 8 13 30.15 1021 10 16 0.00 0.00
7:55 am 07:55 Sunny 32 0 27 -3 80 80 S 8 13 30.15 1021 10 16 0.00 0.00
8:15 am 08:15 Sunny 32 0 27 -3 80 80 SSW 9 15 30.15 1021 10 16 0.00 0.00
8:35 am 08:35 Sunny 34 1 27 -3 75 75 SSW 9 15 30.14 1021 10 16 0.00 0.00
8:55 am 08:55 Sunny 34 1 27 -3 75 75 SSW 9 15 30.14 1021 10 16 0.00 0.00
9:15 am 09:15 Sunny 34 1 28 -2 81 81 SSW 9 15 30.13 1020 10 16 0.00 0.00
9:35 am 09:35 Sunny 36 2 28 -2 75 75 SSW 9 15 30.13 1020 10 16 0.00 0.00
9:55 am 09:55 Sunny 36 2 28 -2 75 75 SSW 10 17 30.13 1020 10 16 0.00 0.00
10:15 am 10:15 Sunny 37 3 28 -2 70 70 SSW 8 13 30.12 1020 10 16 0.00 0.00
10:35 am 10:35 Sunny 37 3 28 -2 70 70 SSW 12 19 30.12 1020 10 16 0.00 0.00
10:55 am 10:55 Sunny 39 4 28 -2 65 65 SSW 9 15 30.11 1019 10 16 0.01 0.25
11:15 am 11:15 Sunny 39 4 28 -2 65 65 SSW 10 17 30.10 1019 10 16 0.01 0.25
11:35 am 11:35 Sunny 41 5 28 -2 61 61 SSW 10 17 30.08 1019 10 16 0.02 0.51
11:55 am 11:55 Sunny 41 5 28 -2 61 61 SW 10 17 30.07 1018 10 16 0.04 1.02
12:15 pm 12:15 Sunny 41 5 28 -2 61 61 SW 9 15 30.06 1018 10 16 0.01 0.25
12:35 pm 12:35 Sunny 43 6 28 -2 57 57 SSW 7 11 30.06 1018 10 16 0.02 0.51
12:55 pm 12:55 Sunny 43 6 30 -1 61 61 S 10 17 30.04 1017 10 16 0.02 0.51
1:15 pm 13:15 Sunny 45 7 30 -1 57 57 SW 5 7 30.03 1017 10 16 0.01 0.25
1:35 pm 13:35 Sunny 45 7 30 -1 57 57 SSW 9 15 30.02 1017 10 16 0.02 0.51
1:55 pm 13:55 Sunny 45 7 30 -1 57 57 SSW 9 15 30.01 1016 10 16 0.05 1.27
2:15 pm 14:15 Sunny 45 7 30 -1 57 57 SSW 8 13 30.01 1016 10 16 0.01 0.25
2:35 pm 14:35 Sunny 45 7 30 -1 57 57 SSW 7 11 30.00 1016 10 16 0.03 0.76
2:55 pm 14:55 Sunny 46 8 30 -1 53 53 SSW 3 6 29.99 1016 10 16 0.05 1.27
3:15 pm 15:15 Sunny 46 8 30 -1 53 53 SSW 8 13 29.99 1016 10 16 0.00 0.00
3:35 pm 15:35 Sunny 48 9 30 -1 50 50 SW 6 9 30.01 1016 10 16 0.00 0.00
3:55 pm 15:55 Sunny 48 9 32 0 54 54 SSW 5 7 30.00 1016 10 16 0.00 0.00
4:15 pm 16:15 Sunny 46 8 32 0 57 57 SSW 5 7 30.00 1016 10 16 0.00 0.00
4:35 pm 16:35 Sunny 46 8 32 0 57 57 SW 8 13 30.01 1016 10 16 0.00 0.00
4:55 pm 16:55 Sunny 46 8 32 0 57 57 SSW 6 9 30.01 1016 10 16 0.00 0.00
5:15 pm 17:15 Sunny 46 8 32 0 57 57 SW 8 13 30.02 1017 10 16 0.00 0.00
5:35 pm 17:35 Clear 46 8 32 0 57 57 SW 5 7 30.02 1017 10 16 0.00 0.00
5:55 pm 17:55 Partly Cloudy 45 7 32 0 61 61 SSW 5 7 30.02 1017 10 16 0.00 0.00
6:15 pm 18:15 Partly Cloudy 45 7 32 0 61 61 SSW 6 9 30.03 1017 10 16 0.00 0.00
6:35 pm 18:35 Partly Cloudy 45 7 32 0 61 61 SSW 5 7 30.03 1017 10 16 0.00 0.00
6:55 pm 18:55 Mostly Cloudy 45 7 32 0 61 61 SSW 6 9 30.03 1017 10 16 0.00 0.00
7:15 pm 19:15 Cloudy 45 7 32 0 61 61 SSW 6 9 30.03 1017 10 16 0.00 0.00
7:35 pm 19:35 Cloudy 45 7 32 0 61 61 SW 5 7 30.02 1017 10 16 0.00 0.00
7:55 pm 19:55 Cloudy 45 7 32 0 61 61 SW 5 7 30.02 1017 10 16 0.00 0.00
8:15 pm 20:15 Cloudy 45 7 32 0 61 61 SSW 6 9 30.02 1017 10 16 0.00 0.00
8:35 pm 20:35 Mostly Cloudy 43 6 32 0 66 66 SSW 5 7 30.02 1017 10 16 0.00 0.00
8:55 pm 20:55 Mostly Cloudy 43 6 32 0 66 66 SSW 5 7 30.03 1017 10 16 0.00 0.00
9:15 pm 21:15 Cloudy 43 6 32 0 66 66 SSW 6 9 30.03 1017 10 16 0.00 0.00
9:35 pm 21:35 Cloudy 43 6 32 0 66 66 SW 6 9 30.03 1017 10 16 0.00 0.00
9:55 pm 21:55 Cloudy 43 6 32 0 66 66 SW 3 6 30.03 1017 10 16 0.00 0.00
10:15 pm 22:15 Cloudy with Drizzle 43 6 32 0 66 66 SW 5 7 30.04 1017 10 16 0.00 0.00
10:35 pm 22:35 Cloudy with Light Rain 43 6 34 1 71 71 SW 3 6 30.04 1017 10 16 0.00 0.00
10:55 pm 22:55 Cloudy with Light Rain 41 5 36 2 81 81 WSW 5 7 30.04 1017 10 16 0.01 0.25
11:15 pm 23:15 Cloudy with Light Rain 41 5 37 3 87 87 SW 5 7 30.05 1018 7 11 0.01 0.25
11:35 pm 23:35 Cloudy with Light Rain 39 4 37 3 93 93 WSW 5 7 30.06 1018 5 8 0.04 1.02
11:55 pm 23:55 Cloudy with Rain 39 4 37 3 93 93 Calm 30.05 1017 7 11 0.06 1.52

Powered by AerisWeather